Location: Cran-Gévrier
(45.9039°N, 6.1012°E)
Time: 21:15:36
(UTC+00:00)

CZ-4 R/B - Pass Details

Date: 09 February 2023
Orbit: 525 x 587 km, 97.7° (Epoch: 22 March)

Event Time Altitude Azimuth Distance (km) Brightness Sun altitude
Rises 19:24:54 0° 193° (SSW) 2,783 5.0 -26.9°
Reaches altitude 10° 19:27:18 10° 205° (SSW) 1,880 4.2 -27.3°
Maximum altitude 19:30:48 27° 264° (W) 1,099 3.4 -27.9°
Drops below altitude 10° 19:34:17 10° 324° (NW) 1,862 4.5 -28.5°
Sets 19:36:40 0° 337° (NNW) 2,751 5.3 -28.9°
